Flag for Russia Weather past 2 weeks in Surgut, Russia

Now
66 °F

Broken clouds.


Feels Like: 66 °F
Forecast: 50 / 57 °F
Wind: 10 mph from Northeast

Location: Surgut Airport

Current Time: Aug 5, 2015 at 2:19:04 PM

Latest Report: Aug 5, 2015 at 1:30 PM


Visibility: 4 mi

Pressure: 29.42 "Hg

Humidity: 68%

Dew point: 55 °F

Location of SurgutLocation

Historic Weather in Surgut — Graph

°F

Surgut temperature yesterday

Maximum temperature yesterday: 70 °F (at 1:00 PM)
Minimum temperature yesterday: 55 °F (at 11:30 PM)
Average temperature yesterday: 64 °F

Past Weeks' High & Low Weather Summary

 TemperatureHumidityPressure
High79 °F (Aug 2, 4:30 PM)100% (Jul 24, 1:30 AM)29.86 "Hg (Jul 24, 1:30 AM)
Low50 °F (Jul 31, 3:30 AM)39% (Jul 21, 4:30 PM)29.36 "Hg (Jul 27, 11:30 PM)
Average65 °F74%29.59 "Hg
* Reported Jul 21 1:00 PM — Aug 5 1:00 PM, Surgut, Weather by CustomWeather, © 2015

Note: Actual official high and low records may vary slightly from our data, if they occured in-between our weather recording intervals... More about our weather records

Advertising

Surgut weather history for previous 24 hours

 ConditionsComfort  
Time TempWeatherWind HumidityBarometerVisibility
1:00 PM
Wed, Aug 5
68 °FBroken clouds.8 mph60%29.42 "Hg4 mi
12:30 PM68 °FBroken clouds.8 mph56%29.42 "Hg4 mi
12:00 PM70 °FBroken clouds.8 mph53%29.42 "Hg4 mi
11:30 AM68 °FBroken clouds.1 mph56%29.42 "Hg4 mi
11:00 AM68 °FScattered clouds.6 mph53%29.42 "Hg4 mi
10:30 AM66 °FBroken clouds.1 mph64%29.45 "Hg4 mi
10:00 AM64 °FClear.3 mph64%29.45 "Hg4 mi
9:30 AM66 °FClear.3 mph64%29.45 "Hg4 mi
9:00 AM68 °FClear.1 mph56%29.45 "Hg4 mi
8:00 AM64 °FClear.3 mph68%29.45 "Hg4 mi
7:30 AM63 °FClear.6 mph77%29.45 "Hg4 mi
7:00 AM61 °FClear.3 mph88%29.45 "Hg4 mi
6:30 AM59 °FClear.No wind88%29.45 "Hg4 mi
6:00 AM57 °FClear.No wind94%29.45 "Hg4 mi
5:30 AM57 °FClear.1 mph94%29.45 "Hg4 mi
5:00 AM55 °FFog.1 mph94%29.47 "Hg4 mi
4:30 AM54 °FFog.1 mph100%29.47 "Hg3 mi
4:00 AM52 °FFog.1 mph94%29.47 "Hg4 mi
3:30 AM52 °FFog.No wind94%29.47 "Hg4 mi
3:00 AM54 °FFog.No wind94%29.47 "Hg4 mi
2:30 AM52 °FFog.No wind94%29.47 "Hg4 mi
2:00 AM54 °FClear.1 mph94%29.47 "Hg4 mi
1:30 AM54 °FClear.No wind88%29.47 "Hg4 mi
1:00 AM54 °FClear.No wind94%29.50 "Hg4 mi
12:30 AM55 °FClear.No wind94%29.50 "Hg4 mi
12:00 AM55 °FClear.No wind94%29.50 "Hg4 mi
11:30 PM
Tue, Aug 4
55 °FClear.No wind94%29.50 "Hg4 mi
11:00 PM57 °FClear.No wind94%29.50 "Hg4 mi
10:30 PM57 °FPartly cloudy.No wind94%29.53 "Hg4 mi
10:00 PM61 °FPassing clouds.No wind83%29.53 "Hg4 mi
9:30 PM61 °FPartly sunny.1 mph83%29.53 "Hg4 mi
9:00 PM63 °FPartly sunny.6 mph77%29.53 "Hg4 mi
8:30 PM64 °FPartly sunny.3 mph73%29.53 "Hg4 mi
8:00 PM66 °FPartly sunny.6 mph64%29.53 "Hg4 mi
7:30 PM66 °FPartly sunny.8 mph64%29.53 "Hg4 mi
7:00 PM68 °FClear.10 mph60%29.53 "Hg4 mi
6:30 PM70 °FClear.8 mph53%29.53 "Hg4 mi
6:00 PM68 °FBroken clouds.10 mph53%29.53 "Hg4 mi
5:30 PM70 °FBroken clouds.10 mph57%29.53 "Hg4 mi
5:00 PM70 °FBroken clouds.8 mph57%29.53 "Hg4 mi
4:30 PM70 °FClear.10 mph57%29.53 "Hg4 mi
4:00 PM70 °FPartly sunny.13 mph57%29.53 "Hg4 mi
3:30 PM70 °FPartly sunny.13 mph57%29.53 "Hg4 mi
3:00 PM70 °FPartly sunny.13 mph57%29.53 "Hg4 mi
2:30 PM70 °FPartly sunny.13 mph53%29.53 "Hg4 mi
2:00 PM68 °FPartly sunny.10 mph60%29.53 "Hg4 mi
Weather by CustomWeather, © 2015

See weather overviewHow to use our weather pages